Weather in Nurlino

Russia / Republic of Bashkortostan     54°48′49″N   55°34′14″E
temp.,
°C
wind,
m/s
gust,
m/s
humid.,
%
clouds,
%
prec.,
mm/h
press.,
hPa
HPBL,
m
18 may, wed
wed1823:00+8ssw35870 0.8 1004100
02:00+6ssw36870 0.0 1004109
05:00+5s368717 0.0 100397
08:00+9ssw468655 0.6 1002336
11:00+12ssw566991 1.8 10011168
14:00+14wsw57552 1.4 10011774
17:00+13wsw476076 1.7 1001598
20:00+10sw697898 0.7 1002450
19 may, thu
thu1923:00+7wsw5118813 1.2 1003429
02:00+7w71093100 0.1 1004562
05:00+5wnw71193100 0.3 1006710
08:00+6w7118028 0.0 1008831
11:00+9w61059100 0.1 10091711
14:00+12wsw685490 0.1 10081823
17:00+12wsw71069100 1.0 10081446
20:00+9w61079100 0.4 1008863
20 may, fri
fri2023:00+5w368837 0.4 1009119
02:00+4w229318 0.0 101029
05:00+5sse128957 0.0 100953
08:00+5ssw3592100 1.1 1010265
11:00+6sse2287100 3.1 1009435
14:00+9ese2176100 0.1 1007754
17:00+9e3379100 0.5 1006615
20:00+8ne2384100 0.3 1004460
21 may, sat
sat2123:00+6nnw229061 0.4 100413
02:00+4nnw34905 0.0 100273
05:00+2nw37906 0.0 1002119
08:00+5nw57847 0.0 1002395
11:00+8nw7776100 0.6 10021066
14:00+7nw786697 0.2 10021368
17:00+8nw685783 0.3 10021749
20:00+6wnw586958 0.1 1003825
22 may, sun
sun2223:00+3w378334 0.1 1003139
02:00+3wsw3684100 0.0 1002194
05:00+3w3594100 0.1 1001367
08:00+3wsw3798100 0.3 1001399
11:00+3w5788100 0.6 1001758
14:00+6w4570100 0.4 10011200
17:00+7wnw6763100 1.5 10011432
20:00+5wnw697562 0.4 1001734